Aérodrome :
LOGIN :

S'inscrire | Disclaimer

   EN    FR    IT 

 










Légende :    VFR   VFR Marginal   IFR   IFR Intensif   IFR Très Intensif
Visi : 
Plafond : 
>= 8 km
>= 3000ft
5 à 8 km
1000 à 3000 ft
1500m à 5 km
500 à 1000 ft
800 à 1500m
200 à 500 ft
< 800m
< 200 ft
Symboles :   Orages  Brouillard  Fortes neiges  Fortes précipitations  Vent > 20 kt
SIGMETs :   Divers  Orages  Givrage  Turbulence  Onde Orograph.  Cendres Volcan.







- Altitude de l'aérodrome : 158 ft
- Code IATA : QAR


EHDL - Deelen Airbase

DERNIER METAR :
  • 231125Z AUTO 29008KT 240V360 9999 SCT023 BKN027 OVC032 16/09 Q1027 WHT

METARs EXPIRÉS :
  • 231055Z AUTO 31006KT 260V010 9999 SCT044 OVC050 15/10 Q1027 BLU
  • 231025Z AUTO 31011KT 230V350 9999 SCT025 OVC028 14/09 Q1027 BLU
  • 230955Z AUTO 30007KT 280V030 9999 BKN021 OVC025 16/09 Q1027 WHT
  • 230925Z AUTO 31009KT 270V010 9999 FEW022 SCT034 BKN039 15/09 Q1027 BLU
  • 230855Z AUTO 32008KT 270V020 9999 SCT020 BKN025 BKN034 15/10 Q1027 WHT

Prévision TAF périmée.
Pas de NOTAMs connus pour ce terrain.



MET'MAP, la Météo Aéronautique d'un coup d'oeil ! - Copyright ORBIFLY Décembre 2007 - Disclaimer

ORBIFLY MET'MAP TEAM :

Programmation & Développement : Alexandra Zaïnal
Conception & Développement : Baudouin d'Aumeries
Co-Programmation & Développement : Marc-Olivier Méhu
Soutien technique & logistique : Manuel Goepfert

Contact : metmap@orbifly.com




SOURCES & CREDITS :

   NOAA